Location: Landeleau
(48.2273°N, 3.7285°W)
Time: 17:50:11
(UTC+00:00)

SPOT 5 - Pass Details

Date: 30 March 2020
Orbit: 624 x 814 km, 98.3° (Epoch: 02 June)

Event Time Altitude Azimuth Distance (km) Brightness Sun altitude
Exits shadow 20:44:21 21° 58° (ENE) 1,441 4.2 -19.8°
Drops below altitude 10° 20:47:26 10° 14° (NNE) 2,023 5.4 -20.2°
Sets 20:50:01 0° 358° (N) 2,925 6.5 -20.6°
